Weather in Znamenka

Russia / Tambov Oblast     52°24′40″N   41°26′42″E
temp.,
°C
wind,
m/s
gust,
m/s
humid.,
%
clouds,
%
prec.,
mm/h
press.,
hPa
HPBL,
m
1 march, mon
mon100:00−9nne129584 0.1 102021
03:00−10nne129676 0.1 102221
06:00−11n129657 0.0 102321
09:00−9n129354 0.0 1026128
12:00−5nw238581 0.0 1026445
15:00−4wnw348889 0.0 1026387
18:00−7wsw349661 0.0 102570
21:00−6wsw4109358 0.0 1024200
2 march, tue
tue200:00−5wsw6139461 0.0 1022377
03:00−3wsw7139281 0.1 1019538
06:00−2wsw71394100 0.1 1016524
09:00+1wsw71392100 0.1 1014618
12:00+1w71396100 0.1 1010609
15:00+1w71398100 0.3 1009598
18:00+1nw61196100 0.1 1008530
21:00−1wnw41094100 0.2 1009341
3 march, wed
wed300:00−3nw4994100 0.0 1009211
03:00−5nw489292 0.0 1010151
06:00−4nw51294100 0.1 1010473
09:00−4nnw71191100 0.3 1012859
12:00−4nnw81184100 0.1 1014939
15:00−4nw71084100 0.2 1015854
18:00−5wnw4108699 0.0 1016266
21:00−4w4119489 0.0 1017298
4 march, thu
thu400:00−3w51192100 0.1 1016447
03:00−3w6119498 0.1 1015462
06:00−4wsw5129298 0.1 1014362
09:00−2wsw7119198 0.1 1012917
12:00+1wsw8149094 0.0 1009720
15:00+2wsw8168384 0.0 1007810
18:00+1wsw71775100 0.0 1005777
21:000wsw81874100 0.0 1004724
5 march, fri
fri500:00+1wsw71583100 0.0 1003619
03:000wnw51098100 0.8 1004475
06:00−1wnw3695100 0.1 1007230
09:00−2nnw2388100 0.1 1009268
12:00−1n228392 0.0 1010475
15:000n227895 0.0 1012584
18:00−2ne1289100 0.0 101338
21:00−4e228999 0.0 101451